Miscellaneous Local Product
Issued by NWS Hastings, NE

Home | Current Version | Previous Version | Graphics & Text | Print | Product List | Glossary On
Versions: 1 2 3 4 5 6 7 8 9 10 11 12 13 14 15 16 17 18 19 20 21 22 23 24 25 26 27 28 29 30 31 32 33 34 35 36 37 38 39 40 41 42 43 44 45 46 47 48 49 50
000
AXUS43 KGID 050502
MISGRI

GID CWA HOURLY WEATHER ROUNDUP
NATIONAL WEATHER SERVICE HASTINGS NE
1200 AM CDT SUN JUL 05 2015

NOTE: "FAIR" INDICATES FEW OR NO CLOUDS BELOW 12,000 FEET WITH NO
SIGNIFICANT WEATHER AND/OR OBSTRUCTIONS TO VISIBILITY.

...SOUTH CENTRAL NEBRASKA...

CITY           SKY/WX    TMP DP  RH WIND       PRES   REMARKS
GRAND ISLAND   CLOUDY    73  63  70 SE13      29.92R
HASTINGS       CLOUDY    74  62  66 S14       29.91F
KEARNEY        CLOUDY    73  63  68 SE13      29.91S
ORD            CLOUDY    74  64  71 SE10      29.88S
YORK           MOCLDY    72  66  83 S8        29.93S
AURORA         CLOUDY    72  66  83 SE12      29.92S
LEXINGTON      MOCLDY    76  65  69 S14       29.90S
HOLDREGE       MOCLDY    73  63  69 SE10      29.91S
HEBRON         MOCLDY    73  64  72 SE9       29.93S

...NEBRASKA PANHANDLE...

CITY           SKY/WX    TMP DP  RH WIND       PRES   REMARKS
CHADRON        PTCLDY    68  64  87 CALM      29.84S
ALLIANCE       CLEAR     67  61  81 SE9       29.88F
SCOTTSBLUFF    MOCLDY    72  62  71 E6        29.88S
SIDNEY         CLOUDY    77  59  53 S12       29.93R

...WESTERN AND NORTH CENTRAL NEBRASKA...

CITY           SKY/WX    TMP DP  RH WIND       PRES   REMARKS
VALENTINE      CLOUDY    80  64  58 SE9       29.83R
AINSWORTH      CLOUDY    78  65  63 S13G25    29.85S
ONEILL         CLOUDY    74  66  75 SE10      29.88F
BROKEN BOW     CLOUDY    76  65  68 SE10      29.90S
IMPERIAL       MOCLDY    81  62  52 SE14      29.90R
NORTH PLATTE   CLEAR     77  64  64 SE10      29.89S
MCCOOK         PTCLDY    78  62  57 SE9       29.89R

...EASTERN NEBRASKA...

CITY           SKY/WX    TMP DP  RH WIND       PRES   REMARKS
NORFOLK        PTCLDY    71  64  78 SE8       29.91S
SO SIOUX CITY  CLEAR     70  62  76 SE9       29.93R
TEKAMAH        CLEAR     69  63  81 SE7       29.94R
COLUMBUS       PTCLDY    72  61  68 SE6       29.90S
ALBION         CLOUDY    70  64  82 SE7       29.91F
OMAHA EPPLEY   CLEAR     72  62  71 S9        29.95S
OFFUTT AFB     CLEAR     68  63  83 SE6       29.95S
MILLARD        CLEAR     70  64  79 SE5       29.95S
LINCOLN        PTCLDY    73  65  75 S9        29.95R
NEBRASKA CITY  CLEAR     67  60  78 S6        29.97S
BEATRICE       CLEAR     72  64  76 SE9       29.95S
FALLS CITY     CLEAR     67  63  87 SE7       29.97R

...NORTHERN KANSAS...

CITY           SKY/WX    TMP DP  RH WIND       PRES   REMARKS
GOODLAND       PTCLDY    76  60  57 SE17      29.92F
NORTON         CLEAR     75  57  53 SE10      29.89F
PHILLIPSBURG   CLEAR     81  64  57 E10       29.91R
SMITH CENTER   CLEAR     75  63  64 SE13G18   29.92R
HAYS           MOCLDY    77  63  61 SE13      29.92R
RUSSELL        PTCLDY    77  64  64 SE14      29.91R
CONCORDIA      MOCLDY    73  64  73 SE10      29.94R
SALINA         CLEAR     78  63  59 SE12      29.93R
TOPEKA         CLEAR     71  65  81 E5        29.98R



USA.gov is the U.S. government's official web portal to all federal, state and local government web resources and services.